Cloud_Cover
0 5 5 3 27 11 16 100 100 100 100 100 100 100 100 100 100 100 91 100 100 100 99 49 36 16 0 4 1 4 13 34 8 0 0 0 0 4 1 2 0 0 12 2 10 11 5 2 0
0 5 2 2 2 63 38 89 100 100 100 100 100 100 100 100 100 100 100 100 100 100 85 35 39 12 4 7 5 3 1 3 4 0 0 1 5 6 0 5 10 7 6 10 0 0 0 0 0
0 4 4 0 2 5 14 16 21 100 94 63 100 100 100 100 100 100 100 100 100 54 66 15 28 11 5 33 97 6 5 2 4 9 11 10 10 7 2 16 19 14 0 0 0 0 0 0 0
0 4 12 5 0 5 80 5 61 6 33 76 34 100 100 100 100 97 40 16 5 5 10 77 6 6 2 0 0 3 0 3 3 15 15 18 8 15 0 1 0 0 0 0 0 0 0 0 0
0 3 57 49 0 2 100 46 99 100 100 100 88 12 35 6 8 5 5 4 4 5 2 26 82 8 3 2 5 3 8 21 5 1 2 18 8 5 2 0 0 0 0 0 0 0 0 0 0
0 1 6 98 0 67 88 100 100 100 100 100 100 17 65 7 5 5 9 5 5 2 5 9 50 5 18 54 84 90 76 36 5 2 4 5 2 0 0 0 0 4 11 14 7 3 0 0 0
0 0 43 46 0 19 50 8 99 100 74 39 5 28 47 14 5 21 8 25 5 5 6 76 93 68 78 63 100 72 62 52 50 5 5 3 0 0 0 0 5 5 5 5 5 0 2 0 0
0 0 5 5 7 0 13 62 5 94 100 54 99 100 94 97 8 20 5 5 6 9 5 6 6 8 90 50 32 15 6 38 5 5 5 5 4 0 1 2 0 0 1 3 5 5 0 0 0
0 0 1 2 3 0 19 32 6 1 0 0 0 57 100 100 100 100 54 41 98 100 96 88 94 36 44 65 29 71 22 34 18 6 16 0 0 0 0 0 0 0 0 2 5 1 0 0 0
0 0 4 4 0 1 5 5 0 0 0 0 0 0 2 11 58 100 90 100 79 90 89 76 62 94 96 33 12 5 5 5 4 2 0 0 0 2 0 0 0 0 0 0 0 0 0 0 0
0 0 5 5 0 0 0 4 0 0 0 0 0 0 0 0 1 1 2 7 22 72 100 92 88 100 94 23 5 97 100 55 36 5 0 0 0 0 0 0 0 0 0 0 0 0 0 0 0
0 0 0 5 0 0 0 1 0 0 0 4 0 0 0 0 0 0 0 0 0 0 18 100 45 88 83 92 96 100 69 55 7 7 4 5 5 4 0 0 0 0 0 0 0 0 0 0 0
0 0 4 5 3 0 0 0 0 0 0 0 0 0 0 0 0 0 0 0 0 0 0 0 0 0 25 81 0 35 80 65 5 5 0 0 0 0 0 0 0 1 5 3 0 2 0 0 0
0 0 0 5 0 0 0 0 0 0 0 0 0 0 0 0 0 0 0 0 0 0 0 0 0 2 0 0 0 0 0 0 0 0 0 0 0 0 0 0 8 29 5 5 5 5 5 5 4
0 0 0 5 0 0 0 0 0 0 0 0 0 0 0 0 0 0 0 0 0 0 0 0 0 2 0 0 0 0 0 0 0 0 0 0 0 0 0 2 2 19 99 54 7 5 4 5 5
0 0 0 0 0 0 0 0 0 0 0 0 0 0 0 0 0 0 0 0 0 0 0 0 0 0 0 0 0 0 0 0 0 0 1 3 33 50 5 5 4 10 6 4 5 11 46 100 100
0 0 0 0 0 0 0 0 0 0 0 0 0 0 0 0 0 0 0 0 0 0 0 0 0 0 0 0 0 0 0 0 0 1 5 5 14 31 77 5 52 99 66 59 100 100 100 100 100
0 0 0 0 0 0 0 0 0 0 0 0 0 0 0 0 0 0 0 0 0 0 0 0 0 0 1 0 0 0 0 45 4 12 14 14 13 4 24 37 83 100 100 100 100 58 48 98 100
0 0 0 0 0 0 0 0 0 0 0 0 0 0 4 5 0 0 0 0 0 0 0 0 0 0 0 0 0 13 14 43 61 96 55 55 63 57 36 3 31 19 24 32 85 5 6 25 7
0 0 0 0 0 0 0 0 0 0 0 0 2 5 5 5 0 0 0 0 0 0 0 0 0 0 0 0 0 4 4 68 80 96 89 68 62 61 43 35 32 44 12 27 25 42 12 8 9
0 0 0 0 0 0 0 0 0 0 0 0 0 0 0 0 0 0 0 0 0 0 2 5 5 1 1 3 11 79 84 100 96 72 66 51 57 3 36 74 2 3 0 0 1 0 0 0 18
0 0 0 0 0 0 0 0 0 0 0 0 0 0 0 0 0 0 0 0 0 0 9 34 5 0 0 0 2 0 4 8 59 45 76 72 2 20 23 0 0 0 0 0 0 0 0 0 0
0 0 0 0 0 0 0 0 0 0 0 0 0 0 0 0 0 0 0 0 0 7 5 5 0 0 18 5 1 9 10 37 68 54 26 99 41 25 0 0 0 0 0 0 0 0 0 0 0
0 0 0 0 0 0 0 0 0 0 0 0 0 0 2 5 5 0 4 17 30 16 9 2 31 85 46 53 70 100 100 97 28 42 2 77 22 0 0 0 0 0 0 0 0 0 0 0 0
0 0 0 0 0 0 0 0 0 1 5 1 0 0 0 1 3 4 5 6 79 61 63 57 100 100 99 100 100 100 100 100 94 81 43 20 7 5 0 0 0 0 0 0 0 0 0 0 0
0 0 0 0 0 0 0 0 2 5 7 77 3 0 0 5 10 7 8 5 96 100 100 93 100 100 100 100 100 100 100 13 12 26 5 69 5 16 19 0 0 0 0 0 0 0 0 0 0
4 0 0 0 0 0 0 0 0 0 0 2 2 0 0 1 4 5 5 15 100 100 99 73 93 100 100 100 100 83 100 46 100 99 81 49 5 5 5 0 0 0 0 0 0 0 0 0 0
0 0 0 0 0 0 0 0 0 0 0 1 5 5 5 4 5 60 71 76 100 100 98 96 88 95 100 100 6 100 86 100 72 23 49 48 29 8 7 1 0 0 0 0 0 0 2 3 0
0 0 0 0 0 0 0 0 0 0 0 5 62 100 43 4 1 5 39 100 100 100 100 100 77 100 100 99 40 60 99 91 44 98 100 46 48 94 5 12 0 0 0 0 0 1 3 3 2
0 0 0 0 0 0 0 1 0 0 0 0 0 5 7 95 12 18 100 100 100 100 100 100 100 100 100 100 100 100 100 100 96 99 55 100 100 58 100 100 83 82 4 3 4 5 3 5 2